Friday, August 22, 2014
07:59 UTC
  |  Log In   |  Register Free
Airport Search:

Madison Airport
(I39)

Madison Airport Diagram
No Airport Diagram Available

FAA data valid effective July 24, 2014 until September 18, 2014 (unless otherwise noted).

 
 
 
 
 
 
 
 
 
 
 
 
 
 

Current Aviation Weather for Madison Airport (I39)

The most recent METAR observation for KDVK was updated at: 1835 UTC
METAR Summary (Translated METAR)
KDVK
281835Z AUTO 33008KT 10SM SCT032 BKN042 BKN050 23/16 A3000 RMK AO2
KLEX
(28.6 nm NE from KDVK)
281844Z 31009KT 10SM FEW022 SCT028 OVC055 22/15 A3000 RMK AO2 T02170150
TAF Summary (Translated TAF)
KLEX
(28.6 nm NE from KDVK)
220521Z 2206/2306 20005KT P6SM FEW040 BKN250 FM221500 25009KT P6SM SCT045 FM222100 23006KT P6SM VCSH BKN040
KSME
(32.3 nm SE from KDVK)
220537Z 2206/2306 22003KT P6SM SCT120 BKN250 FM220900 VRB03KT 3SM BR BKN250 FM221300 25008KT P6SM BKN040 FM222000 24007KT P6SM VCTS SCT050CB
  Airport Weather Conditions for I39

Current weather conditions are
not available for I39


The nearest NOAA weather station
is at DVK, (21 nm SW from I39)
  
 Current Weather at DVK
73° F
Fair
North winds at 0.0 mph
DVK NOAA Radar

Pressure: 30.10 in
Humidity: 94%
Wind: Calm
Dew Point: 71.6°F
Visibility: 10.00 mi


Airport Weather Forecast for I39

Translated METAR and TAF for KDVK
Translated METAR for KDVK (0753 UTC 22 August 2014)
found at http://aviationweather.gov/adds/metars/
 
METAR text: KDVK 220735Z AUTO 23005KT 10SM CLR 24/21 A3005 RMK AO2
Conditions at: KDVK (DANVILLE , KY, US) observed 0735 UTC 22 August 2014
Temperature: 24.0°C (75°F)
Dewpoint: 21.0°C (70°F) [RH = 83%]
Pressure (altimeter): 30.05 inches Hg (1017.7 mb)
Winds: from the SW (230 degrees) at 6 MPH (5 knots; 2.6 m/s)
Visibility: 10 or more miles (16+ km)
Ceiling: at least 12,000 feet AGL
Clouds: sky clear below 12,000 feet AGL
Weather: automated observation with no human augmentation;
there may or may not be significant weather present at this time
Translated TAF for KDVK

There is no translated TAF available for this airport

Find All Airport Services Find A Hotel Find A Rental Car Find A Golf Course Find A Restaurant $100 Hamburger



FBO's on the Field
FBO Company Facility Photos Services Transportation Aviation Fuel Prices: Prices include tax
Catering Weather Repair Courtesy Rental Type 100LL JetA JetA+ MOGAS 8087
 
Eastern Kentucky University

This FBO has not yet been rated
FS:Shell
Last Updated: Jul-21
Login to update fuel prices
SS:
Contact Eastern Kentucky UniversityMore FBO Information
 
Add another FBO Facility Photos Catering Weather Repair Courtesy Rental Type 100LL JetA JetA+ MOGAS 8087
Services Transportation Aviation Fuel Prices: Prices include tax


GlobalAir.com Airport Resource Center model-print
model-print
model-print
model-print